Regional Weather Roundup
Issued by NWS

Home | Current Version | Previous Version | Graphics & Text | Print | Product List | Glossary On
Versions: 1 2 3 4 5 6 7 8 9 10 11 12 13 14 15 16 17 18 19 20 21 22 23 24 25 26 27 28 29 30 31 32 33 34 35 36 37 38 39 40 41 42 43 44 45 46 47 48 49 50
000
ASUS43 KLMK 201802
RWRKY
KENTUCKY REGIONAL WEATHER ROUNDUP
NATIONAL WEATHER SERVICE LOUISVILLE KY
200 PM EDT SAT SEP 20 2014

NOTE "FAIR" INDICATES FEW OR NO CLOUDS BELOW 12,000 FEET
WITH NO SIGNIFICANT WEATHER AND/OR OBSTRUCTIONS TO VISIBILITY.

KYZ001>023-026-027-061>063-070>075-201900-
WESTERN AND SOUTH CENTRAL KENTUCKY

CITY           SKY/WX    TMP DP  RH WIND       PRES   REMARKS
PADUCAH        MOSUNNY   87  67  51 SW10      30.04F HX  90
HENDERSON      MOSUNNY   86  64  48 SW13      30.03F
OWENSBORO      PTSUNNY   85  68  56 SW9       30.04F
HOPKINSVILLE   SUNNY     85  68  57 SW9       30.06F
BOWLING GREEN  PTSUNNY   81  64  56 SW10      30.08F
GLASGOW        MOSUNNY   81  63  53 SW9       30.09F
$$

KYZ024-025-028>034-038-045-046-053-201900-
NORTH CENTRAL KENTUCKY

CITY           SKY/WX    TMP DP  RH WIND       PRES   REMARKS
LOUISVILLE/SDF CLOUDY    81  66  60 SW13      30.05F
LOUISVILLE/LOU MOSUNNY   81  66  60 SW9       30.06F
FORT KNOX      MOSUNNY   81  67  60 SW12      30.05F
$$

KYZ035>037-039>044-047>052-055>060-089>105-201900-
NORTHEAST KENTUCKY

CITY           SKY/WX    TMP DP  RH WIND       PRES   REMARKS
LEXINGTON      MOSUNNY   81  63  54 SW12      30.09F
COVINGTON      PTSUNNY   78  66  66 SW10      30.05F
FRANKFORT      MOSUNNY   80  64  58 SW13      30.07F
$$

KYZ054-064>069-076>088-106>120-201900-
SOUTHEAST KENTUCKY

CITY           SKY/WX    TMP DP  RH WIND       PRES   REMARKS
JACKSON        MOSUNNY   79  62  56 VRB5      30.13F
LONDON         SUNNY     80  60  50 S9        30.13F
SOMERSET       MOSUNNY   79  61  53 SW3       30.12F
MIDDLESBORO    SUNNY     80  60  51 S8        30.14F
MONTICELLO     PTCLDY    83  62  48 S7        30.12F
$$




USA.gov is the U.S. government's official web portal to all federal, state and local government web resources and services.